Location: Newark
(48.1281°N, 2.1556°W)
Time: 08:38:41
(UTC+00:00)

Envisat - Pass Details

Date: 25 November 2019
Orbit: 764 x 766 km, 98.1° (Epoch: 11 December)

Event Time Altitude Azimuth Distance (km) Brightness Sun altitude
Rises 18:33:08 0° 182° (S) 3,219 6.4 -21.5°
Reaches altitude 10° 18:35:31 10° 189° (S) 2,298 5.6 -21.9°
Maximum altitude 18:40:22 45° 262° (W) 1,039 4.1 -22.7°
Drops below altitude 10° 18:45:15 10° 335° (NNW) 2,313 5.7 -23.5°
Sets 18:47:40 0° 342° (NNW) 3,244 6.4 -23.9°
